Regional Weather Roundup
Issued by NWS

Home | Current Version | Previous Version | Graphics & Text | Print | Product List | Glossary On
Versions: 1 2 3 4 5 6 7 8 9 10 11 12 13 14 15 16 17 18 19 20 21 22 23 24 25 26 27 28 29 30 31 32 33 34 35 36 37 38 39 40 41 42 43 44 45 46 47 48 49 50
000
ASUS43 KDTX 231010
RWRMI
MICHIGAN HOURLY REGIONAL WEATHER ROUNDUP
NATIONAL WEATHER SERVICE DETROIT/PONTIAC MI
600 AM EDT WED APR 23 2014

NOTE: "FAIR" INDICATES FEW OR NO CLOUDS BELOW 12,000 FEET WITH NO
SIGNIFICANT WEATHER AND/OR OBSTRUCTION TO VISIBILITY.

MIZ047>049-052>055-059>063-066>070-074>076-081>083-231100-
SOUTHEAST LOWER MICHIGAN

CITY           SKY/WX    TMP DP  RH WIND       PRES   REMARKS
ADRIAN         CLOUDY    36  28  73 N10       30.02R WCI  28
ALMA           CLEAR     31  28  85 NW6       30.07R WCI  26
ANN ARBOR      CLOUDY    37  28  70 N13       30.01R WCI  29
BAD AXE        CLOUDY    36  29  76 N14G21    30.00R WCI  27
CARO           CLOUDY    38  32  78 N10       30.01R WCI  32
DETROIT CITY   CLOUDY    40  28  62 NW15G21   29.99R WCI  32
DETROIT        CLOUDY    39  29  67 NW15      30.01R WCI  31
FLINT          CLOUDY    36  28  73 NW12      30.03R WCI  28
GROSSE ILE     CLOUDY    39  28  65 N13       29.99R WCI  32
HILLSDALE      CLOUDY    36  28  73 N13       30.03R WCI  27
HOWELL         CLOUDY    34  29  81 NW10      30.03R WCI  26

CITY           SKY/WX    TMP DP  RH WIND       PRES   REMARKS
JACKSON        CLOUDY    35  27  72 NW10      30.04R WCI  27
LAMBERTVILLE   CLOUDY    36  30  80 NW7       30.02R WCI  30
LANSING        CLEAR     31  26  82 NW8       30.06R WCI  23
LAPEER         CLOUDY    36  31  83 N9        30.00R WCI  29
MASON          PTCLDY    33  28  83 NW9       30.04R WCI  25
MONROE         CLOUDY    37  28  70 N12G20    29.99R WCI  30
MT. CLEMENS    CLOUDY    38  31  74 N18       29.98R WCI  28
PONTIAC        MOCLDY    36  28  73 NW14G20   29.99R WCI  27
PORT HOPE        N/A     37  31  78 N9        29.98R WCI  30
PORT HURON     CLOUDY    36  32  87 N8        29.98R WCI  29
TRI CITIES     CLEAR     34  28  79 NW12      30.05R WCI  25
TROY           CLOUDY    37  28  70 NW8       30.01R WCI  31
SAGINAW HB     PTCLDY    34  30  86 NW9       30.04R WCI  26
YPSILANTI      CLOUDY    40  28  62 NW14      30.01R WCI  32
$$
MIZ043>046-050>051-056>058-064>065-071>073-077>080-231100-
SOUTHWEST LOWER MICHIGAN

CITY           SKY/WX    TMP DP  RH WIND       PRES   REMARKS
BATTLE CREEK   CLEAR     32  25  75 NW8       30.07R WCI  25
BENTON HARBOR  CLEAR     34  29  82 VRB5      30.12R WCI  30
BIG RAPIDS     CLEAR     31  26  83 NW3       30.07R
COLDWATER      CLEAR     32  27  81 N8        30.05R WCI  25
FREMONT        FAIR      29  28  92 NW7       30.10R WCI  22
HOLLAND        CLEAR     34  26  72 N5        30.11R WCI  30
GRAND RAPIDS   CLEAR     32  26  78 NW8       30.09R WCI  25
IONIA          FAIR      32  27  81 NW6       30.07R WCI  26
KALAMAZOO      CLEAR     32  25  75 N13       30.08R WCI  22
LUDINGTON      CLEAR     31  28  89 N5        30.12S WCI  26
MARSHALL       CLOUDY    31  26  81 NW3       30.06R
MOUNT PLEASANT CLEAR     32  28  86 NW5       30.06R WCI  27
MUSKEGON       CLEAR     34  26  72 N12       30.12R WCI  25
SOUTH HAVEN    CLEAR     34  29  84 N3        30.10R
$$
MIZ016>042-231100-
NORTHERN LOWER MICHIGAN

CITY           SKY/WX    TMP DP  RH WIND       PRES   REMARKS
ALPENA         CLEAR     31  26  82 NW9       30.04R WCI  23
BEAVER ISLAND  CLEAR     31  24  77 N6        30.10R WCI  25
BELLAIRE       CLEAR     30  28  92 CALM      30.08S
CADILLAC       CLEAR     28  26  93 N6        30.05S WCI  22
CHARLEVOIX     CLEAR     31  28  89 N5        30.12S WCI  26
FRANKFORT      CLEAR     32  29  88 N3        30.11S
GAYLORD        CLEAR     29  24  82 VRB5      30.04S WCI  24
GRAYLING       CLEAR     28  25  89 NW7       30.05S WCI  21
HARBOR SPRINGS CLEAR     31  26  81 CALM      30.07S
HOUGHTON LAKE  CLEAR     30  26  85 N9        30.04R WCI  22
MANISTEE       CLEAR     34  27  75 N8        30.12R WCI  27
OSCODA         CLEAR     33  27  79 NW9       30.01S WCI  25
PELLSTON       CLEAR     30  22  72 NW7       30.08S WCI  23
ROGERS CITY    CLEAR     32  28  86 NW13      30.06S WCI  22
TRAVERSE CITY  CLEAR     29  25  85 CALM      30.09R
$$
MIZ007>008-015-231100-
EASTERN UPPER MICHIGAN

CITY           SKY/WX    TMP DP  RH WIND       PRES   REMARKS
KINROSS        CLEAR     28  25  86 NW7       30.07R WCI  21
MACKINAC ISLAN CLEAR     29  24  81 N8        30.07S WCI  21
NEWBERRY       CLEAR     28  22  78 N6        30.08S WCI  21
S. S. MARIE    CLEAR     30  20  66 W3        30.07R
MUNISING         N/A     27  22  81 CALM      30.13R
$$
MIZ004>006-011>014-085-231100-
CENTRAL UPPER MICHIGAN

CITY           SKY/WX    TMP DP  RH WIND       PRES   REMARKS
MANISTIQUE     CLEAR     25  24  93 NW7       30.11R WCI  18
ESCANABA       CLEAR     28  23  80 NW5       30.13R WCI  23
MENOMINEE      CLEAR     28  25  86 NW6       30.14S WCI  22
SAWYER-GWINN   CLEAR     24  22  90 CALM      30.12R
$$
MIZ001>003-009>011-084-231100-
WESTERN UPPER MICHIGAN

CITY           SKY/WX    TMP DP  RH WIND       PRES   REMARKS
IRON MOUNTAIN  CLEAR     22  18  85 CALM      30.12R
HOUGHTON       CLEAR     29  22  75 NW5       30.13R WCI  24
COPPER HARBOR    N/A     30  24  78 W5        30.14R WCI  25
IRONWOOD       CLEAR     25  21  86 E3        30.10S
$$

ABBREVIATIONS USED IN REMARKS
   TC - TEMPERATURE IN CELSIUS
  WCI - WIND CHILL INDEX
   HX - HEAT INDEX
  VSB - VISIBILITY




USA.gov is the U.S. government's official web portal to all federal, state and local government web resources and services.